Weather in Jonava

Lithuania     55°04′42″N   24°16′35″E
temp.,
°C
wind,
m/s
gust,
m/s
humid.,
%
clouds,
%
prec.,
mm/h
press.,
hPa
HPBL,
m
28 july, wed
wed2800:00+18ssw269698 0.1 1011115
03:00+18wsw25969 0.1 1011136
06:00+17w22975 0.0 101128
09:00+21wsw22836 0.0 1012310
12:00+26wsw235365 0.0 10111206
15:00+28wsw454399 0.0 10102227
18:00+27w47450 0.0 10102031
21:00+22ssw226993 0.0 100926
29 july, thu
thu2900:00+20sw226690 0.0 100929
03:00+19sse2483100 0.3 100887
06:00+18sw4997100 0.8 1009385
09:00+19w369598 0.8 1009352
12:00+24w46545 0.0 10091328
15:00+27w464399 0.0 10072369
18:00+23nw496268 0.0 1007596
21:00+19wsw25767 0.0 1008104
30 july, fri
fri3000:00+16w388696 0.0 1009174
03:00+15sw22904 0.0 100817
06:00+14sw259523 0.0 100898
09:00+20wsw5116024 0.2 1008952
12:00+23wsw71240100 0.0 10072080
15:00+22wsw51148100 0.0 10062036
18:00+20sw5115197 0.0 10051065
21:00+19sw5115845 0.0 1005595
31 july, sat
sat3100:00+14wsw387827 0.0 1006155
03:00+15sw513690 0.0 1006476
06:00+13sw3107712 0.0 1006249
09:00+19sw485914 0.0 1006471
12:00+23sw4644100 0.0 10061077
15:00+25sw6948100 0.0 10051374
18:00+20s4985100 0.4 1004372
21:00+17s2696100 1.6 1003138
1 august, sun
sun100:00+16w3794100 0.1 1005130
03:00+13sw38950 0.1 1005151
06:00+12sw411930 0.0 1006268
09:00+17sw510764 0.0 1006560
12:00+22wsw5756100 0.0 10071588
15:00+21w3660100 0.1 10081344
18:00+22wnw3552100 0.0 10081390
21:00+18n1273100 0.0 100811